TSC256 CYUL-CYYZ

Flight info

Callsign TSC256
Flight time N/A
Altitude 30000
Route BOBKI DCT MELTI DCT TORNI RAGID6
Aircraft A21N/M-SDE2E3FGHIRWXY/LB1

Departure

Time 2026-04-30 22:49
Airport Montreal / Pierre Elliott Trudeau International Airport (CYUL)

Arrival

Time N/A
Airport Toronto Pearson International Airport (CYYZ)
Time Latitude Longitude Altitude Speed Heading
2026-04-30 22:27 45.45931 -73.74900 105 ft 0 kts 178°
2026-04-30 22:39 45.45976 -73.74916 104 ft 3 kts 101°
2026-04-30 22:40 45.45978 -73.74937 102 ft 0 kts 83°
2026-04-30 22:41 45.45983 -73.74793 103 ft 6 kts 93°
2026-04-30 22:41 45.45958 -73.74670 105 ft 6 kts 108°
2026-04-30 22:42 45.46084 -73.74267 103 ft 11 kts 46°
2026-04-30 22:43 45.46142 -73.74083 103 ft 16 kts 81°
2026-04-30 22:43 45.46282 -73.73869 106 ft 13 kts 43°
2026-04-30 22:44 45.46408 -73.73705 107 ft 17 kts 42°
2026-04-30 22:45 45.46818 -73.73171 114 ft 20 kts 42°
2026-04-30 22:45 45.47058 -73.72853 113 ft 23 kts 43°
2026-04-30 22:46 45.47302 -73.72533 117 ft 23 kts 43°
2026-04-30 22:47 45.47710 -73.72000 119 ft 17 kts 42°
2026-04-30 22:47 45.47795 -73.71784 119 ft 11 kts 121°
2026-04-30 22:48 45.47700 -73.71638 120 ft 10 kts 172°
2026-04-30 22:49 45.47086 -73.72414 114 ft 117 kts 223°
2026-04-30 22:49 45.44476 -73.75544 1115 ft 180 kts 222°
2026-04-30 22:50 45.41902 -73.81339 3423 ft 178 kts 266°
2026-04-30 22:51 45.41936 -73.84853 4505 ft 180 kts 274°
2026-04-30 22:51 45.41985 -73.86580 4855 ft 189 kts 274°
2026-04-30 22:52 45.42041 -73.88468 5236 ft 196 kts 273°
2026-04-30 22:52 45.42155 -73.92546 5838 ft 222 kts 273°
2026-04-30 22:53 45.42161 -73.97440 6461 ft 262 kts 269°
2026-04-30 22:53 45.41996 -74.02579 8086 ft 262 kts 267°
2026-04-30 22:53 45.41902 -74.05168 8899 ft 262 kts 267°
2026-04-30 22:54 45.41894 -74.10416 10214 ft 272 kts 270°
2026-04-30 22:55 45.41952 -74.18751 11945 ft 291 kts 267°
2026-04-30 22:55 45.41829 -74.24645 13062 ft 305 kts 266°
2026-04-30 22:56 45.41689 -74.30822 14127 ft 319 kts 265°
2026-04-30 22:56 45.41434 -74.40439 15842 ft 330 kts 264°
2026-04-30 22:57 45.41022 -74.46929 17211 ft 328 kts 257°
2026-04-30 22:57 45.40037 -74.53363 18193 ft 338 kts 252°
2026-04-30 22:58 45.38790 -74.59903 19096 ft 346 kts 250°
2026-04-30 22:59 45.36999 -74.70037 20587 ft 355 kts 253°
2026-04-30 22:59 45.35381 -74.80364 22250 ft 358 kts 253°